TimeEDT,TemperatureF,Dew PointF,Humidity,Sea Level PressureIn,VisibilityMPH,Wind Direction,Wind SpeedMPH,Gust SpeedMPH,PrecipitationIn,Events,Conditions,WindDirDegrees,DateUTC
12:54 AM,44.1,35.1,71,29.72,10.0,South,4.6,-,N/A,,Mostly Cloudy,190,2012-11-01 04:54:00
1:54 AM,42.1,37.0,82,29.71,10.0,SSW,3.5,-,N/A,,Mostly Cloudy,210,2012-11-01 05:54:00
2:54 AM,43.0,37.9,82,29.71,10.0,SW,3.5,-,N/A,,Overcast,220,2012-11-01 06:54:00
3:54 AM,42.1,37.9,85,29.71,10.0,South,4.6,-,N/A,,Overcast,180,2012-11-01 07:54:00
4:54 AM,43.0,37.9,82,29.70,10.0,SW,3.5,-,N/A,,Overcast,230,2012-11-01 08:54:00
5:54 AM,43.0,37.9,82,29.71,10.0,SSW,3.5,-,N/A,,Overcast,200,2012-11-01 09:54:00
6:54 AM,43.0,37.9,82,29.71,10.0,South,4.6,-,N/A,,Overcast,190,2012-11-01 10:54:00
7:54 AM,43.0,37.9,82,29.73,10.0,SW,3.5,-,N/A,,Overcast,220,2012-11-01 11:54:00
8:54 AM,46.0,37.0,71,29.74,10.0,West,4.6,-,N/A,,Overcast,260,2012-11-01 12:54:00
9:54 AM,50.0,36.0,59,29.74,10.0,West,9.2,-,N/A,,Overcast,270,2012-11-01 13:54:00
10:54 AM,53.1,35.1,50,29.75,10.0,WNW,10.4,-,N/A,,Overcast,300,2012-11-01 14:54:00
11:54 AM,55.9,34.0,44,29.74,10.0,West,10.4,-,N/A,,Overcast,280,2012-11-01 15:54:00
12:54 PM,57.0,34.0,42,29.73,10.0,West,9.2,-,N/A,,Mostly Cloudy,280,2012-11-01 16:54:00
1:54 PM,57.9,34.0,41,29.70,10.0,West,12.7,-,N/A,,Mostly Cloudy,270,2012-11-01 17:54:00
2:54 PM,55.9,34.0,44,29.69,10.0,WNW,9.2,-,N/A,,Mostly Cloudy,290,2012-11-01 18:54:00
3:54 PM,55.9,35.1,45,29.70,10.0,NW,11.5,24.2,N/A,,Overcast,310,2012-11-01 19:54:00
4:54 PM,55.0,35.1,47,29.71,10.0,West,6.9,-,N/A,,Overcast,280,2012-11-01 20:54:00
5:54 PM,54.0,34.0,47,29.72,10.0,West,15.0,-,N/A,,Mostly Cloudy,270,2012-11-01 21:54:00
6:54 PM,53.1,34.0,48,29.75,10.0,West,5.8,-,N/A,,Mostly Cloudy,260,2012-11-01 22:54:00
7:54 PM,52.0,35.1,53,29.76,10.0,West,5.8,-,N/A,,Mostly Cloudy,260,2012-11-01 23:54:00
8:54 PM,51.1,36.0,56,29.76,10.0,WSW,9.2,-,N/A,,Mostly Cloudy,250,2012-11-02 00:54:00
9:54 PM,50.0,36.0,59,29.78,10.0,West,9.2,-,0.00,,Overcast,270,2012-11-02 01:54:00
10:54 PM,50.0,35.1,57,29.79,10.0,WNW,10.4,-,N/A,,Overcast,290,2012-11-02 02:54:00
11:54 PM,50.0,34.0,54,29.80,10.0,WNW,9.2,-,N/A,,Mostly Cloudy,300,2012-11-02 03:54:00